Danville, KY

1:04 AM EDT on April 28, 2017 (GMT -0400)
Powell

Weather History for KDVK - November, 2013

Change the Weather History Date:

Friday, November 22, 2013

  Actual Average (KLEX) Record (KLEX)
Temperature  
Mean Temperature 47 °F -  
Max Temperature 55 °F 51 °F 76 °F (1931)
Min Temperature 37 °F 34 °F 9 °F (1964)
Degree Days  
Heating Degree Days 18    
Moisture  
Dew Point 50 °F    
Average Humidity 96    
Maximum Humidity 100    
Minimum Humidity 76    
Precipitation  
Precipitation 0.00 in - - ()
Sea Level Pressure  
Sea Level Pressure 30.26 in    
Wind  
Wind Speed 6 mph (WNW)    
Max Wind Speed 17 mph    
Max Gust Speed 24 mph    
Visibility 6 miles    
Events Rain    
Averages and records for this station are not official NWS values.
T = Trace of Precipitation, MM = Missing Value Source: NWS Daily Summary

Daily Weather History Graph

Daily Weather History Graph

Search for Another Location

Airport or City:

Trip Planner

Search our weather history database for the weather conditions in past years. The results will help you decide how hot, cold, wet, or windy it might be!

Date:

Astronomy

Nov. 22, 2013 Rise Set
Actual Time 7:26 AM EST 5:23 PM EST
Civil Twilight 6:58 AM EST 5:52 PM EST
Nautical Twilight 6:26 AM EST 6:24 PM EST
Astronomical Twilight 5:54 AM EST 6:55 PM EST
Moon 9:53 PM EST (11/22) 11:10 AM EST (11/22)
Length of Visible Light 10h 54m
Length of Day
9h 57m
Waning Gibbous, 78% of the Moon is Illuminated
Nov 22
Waning Gibbous
Nov 25
Last Quarter
Dec 2
New
Dec 9
First Quarter
Dec 17
Full

Hourly Weather History & Observations

Time (EST) Temp. Windchill Dew Point Humidity Pressure Visibility Wind Dir Wind Speed Gust Speed Precip Events Conditions
12:15 AM 55.4 °F - 50.0 °F 82% 30.24 in 10.0 mi SSW 5.8 mph - N/A   Overcast
12:35 AM 55.4 °F - 50.0 °F 82% 30.24 in 10.0 mi SSW 6.9 mph - N/A   Overcast
12:55 AM 55.4 °F - 51.8 °F 88% 30.23 in 10.0 mi SSW 6.9 mph - N/A   Overcast
1:15 AM 55.4 °F - 51.8 °F 88% 30.24 in 10.0 mi Calm Calm - N/A   Overcast
1:35 AM 55.4 °F - 51.8 °F 88% 30.24 in 10.0 mi SSW 4.6 mph - N/A Rain Light Rain
1:55 AM 53.6 °F - 51.8 °F 94% 30.23 in 10.0 mi South 3.5 mph - N/A   Overcast
2:15 AM 53.6 °F - 51.8 °F 94% 30.23 in 10.0 mi South 4.6 mph - N/A Rain Light Rain
2:35 AM 53.6 °F - 51.8 °F 94% 30.24 in 5.0 mi Calm Calm - N/A Rain Rain
2:55 AM 53.6 °F - 51.8 °F 94% 30.24 in 5.0 mi Calm Calm - N/A Rain Rain
3:15 AM 53.6 °F - 51.8 °F 94% 30.24 in 7.0 mi Calm Calm - N/A Rain Rain
3:35 AM 53.6 °F - 51.8 °F 94% 30.23 in 4.0 mi Calm Calm - N/A   Drizzle
3:55 AM 51.8 °F - 51.8 °F 100% 30.23 in 7.0 mi Calm Calm - N/A   Overcast
4:15 AM 51.8 °F - 51.8 °F 100% 30.23 in 7.0 mi Calm Calm - N/A   Overcast
4:35 AM 51.8 °F - 51.8 °F 100% 30.23 in 5.0 mi Calm Calm - N/A   Overcast
4:55 AM 51.8 °F - 51.8 °F 100% 30.23 in 5.0 mi Calm Calm - N/A   Overcast
5:15 AM 51.8 °F - 51.8 °F 100% 30.23 in 3.0 mi Calm Calm - N/A Rain Rain
5:35 AM 53.6 °F - 53.6 °F 100% 30.23 in 5.0 mi Calm Calm - N/A Rain Light Rain
5:55 AM 53.6 °F - 53.6 °F 100% 30.23 in 4.0 mi Calm Calm - N/A Rain Rain
6:15 AM 53.6 °F - 53.6 °F 100% 30.23 in 2.5 mi South 3.5 mph - N/A Rain Rain
6:35 AM 53.6 °F - 53.6 °F 100% 30.23 in 3.0 mi South 3.5 mph - N/A Rain Rain
6:55 AM 53.6 °F - 53.6 °F 100% 30.23 in 4.0 mi South 4.6 mph - N/A   Overcast
7:15 AM 53.6 °F - 53.6 °F 100% 30.24 in 5.0 mi SSW 6.9 mph - N/A   Overcast
7:35 AM 53.6 °F - 53.6 °F 100% 30.24 in 2.5 mi SSW 6.9 mph - N/A   Drizzle
7:55 AM 53.6 °F - 53.6 °F 100% 30.23 in 1.5 mi SSW 5.8 mph - N/A   Drizzle
8:15 AM 53.6 °F - 53.6 °F 100% 30.23 in 2.0 mi SW 5.8 mph - N/A   Drizzle
8:35 AM 53.6 °F - 53.6 °F 100% 30.23 in 2.0 mi SW 8.1 mph - N/A   Drizzle
8:55 AM 53.6 °F - 53.6 °F 100% 30.23 in 1.8 mi SW 8.1 mph - N/A   Heavy Drizzle
9:15 AM 55.4 °F - 55.4 °F 100% 30.23 in 2.0 mi SW 8.1 mph - N/A   Heavy Drizzle
9:35 AM 55.4 °F - 55.4 °F 100% 30.23 in 2.0 mi SW 6.9 mph - N/A   Drizzle
9:55 AM 55.4 °F - 55.4 °F 100% 30.24 in 1.5 mi SW 5.8 mph - N/A   Heavy Drizzle
10:15 AM 55.4 °F - 55.4 °F 100% 30.25 in 1.8 mi SW 6.9 mph - N/A   Heavy Drizzle
10:35 AM 55.4 °F - 55.4 °F 100% 30.25 in 2.0 mi WSW 4.6 mph - N/A   Heavy Drizzle
10:55 AM 55.4 °F - 55.4 °F 100% 30.25 in 2.0 mi WSW 6.9 mph - N/A   Drizzle
11:15 AM 55.4 °F - 55.4 °F 100% 30.25 in 2.5 mi WSW 5.8 mph - N/A   Drizzle
11:35 AM 55.4 °F - 55.4 °F 100% 30.24 in 2.5 mi WSW 3.5 mph - N/A   Drizzle
11:55 AM 55.4 °F - 55.4 °F 100% 30.23 in 4.0 mi West 6.9 mph - N/A   Light Drizzle
12:15 PM 55.4 °F - 55.4 °F 100% 30.22 in 4.0 mi West 5.8 mph - N/A Rain Rain
12:35 PM 55.4 °F - 55.4 °F 100% 30.22 in 7.0 mi West 9.2 mph - N/A Rain Light Rain
12:55 PM 55.4 °F - 55.4 °F 100% 30.21 in 7.0 mi West 5.8 mph - N/A   Drizzle
1:15 PM 55.4 °F - 55.4 °F 100% 30.21 in 7.0 mi West 6.9 mph - N/A Rain Light Rain
1:35 PM 55.4 °F - 55.4 °F 100% 30.20 in 5.0 mi NW 3.5 mph - N/A Rain Rain
1:55 PM 55.4 °F - 53.6 °F 94% 30.20 in 7.0 mi WNW 8.1 mph - N/A Rain Rain
2:15 PM 55.4 °F - 53.6 °F 94% 30.20 in 4.0 mi WNW 6.9 mph - N/A Rain Light Rain
2:35 PM 55.4 °F - 53.6 °F 94% 30.20 in 5.0 mi NW 8.1 mph - N/A   Heavy Drizzle
2:55 PM 53.6 °F - 53.6 °F 100% 30.21 in 5.0 mi NW 15.0 mph 20.7 mph N/A Rain Rain
3:15 PM 51.8 °F - 51.8 °F 100% 30.22 in 3.0 mi NNW 12.7 mph - N/A Rain Rain
3:35 PM 51.8 °F - 51.8 °F 100% 30.23 in 5.0 mi NNW 11.5 mph - N/A Rain Rain
3:55 PM 51.8 °F - 51.8 °F 100% 30.24 in 4.0 mi NNW 6.9 mph - N/A Rain Heavy Rain
4:15 PM 50.0 °F - 50.0 °F 100% 30.24 in 4.0 mi NNW 10.4 mph 16.1 mph N/A Rain Rain
4:35 PM 50.0 °F - 50.0 °F 100% 30.25 in 5.0 mi NNW 9.2 mph - N/A Rain Rain
4:55 PM 50.0 °F - 50.0 °F 100% 30.25 in 7.0 mi NNW 8.1 mph - N/A Rain Rain
5:15 PM 50.0 °F - 48.2 °F 94% 30.26 in 7.0 mi North 15.0 mph 18.4 mph N/A Rain Light Rain
5:35 PM 48.2 °F - 46.4 °F 93% 30.27 in 10.0 mi North 10.4 mph 17.3 mph N/A   Overcast
5:55 PM 48.2 °F - 46.4 °F 93% 30.27 in 10.0 mi North 11.5 mph - N/A   Overcast
6:15 PM 46.4 °F 40.1 °F 46.4 °F 100% 30.27 in 10.0 mi North 15.0 mph 21.9 mph N/A   Overcast
6:35 PM 46.4 °F 39.5 °F 44.6 °F 93% 30.30 in 7.0 mi North 17.3 mph 24.2 mph N/A   Overcast
6:55 PM 46.4 °F 39.8 °F 44.6 °F 93% 30.31 in 7.0 mi North 16.1 mph 19.6 mph N/A   Overcast
7:15 PM 44.6 °F 38.4 °F 44.6 °F 100% 30.32 in 5.0 mi North 12.7 mph 17.3 mph N/A   Overcast
7:35 PM 44.6 °F 38.8 °F 42.8 °F 93% 30.32 in 5.0 mi North 11.5 mph - N/A   Overcast
7:55 PM 44.6 °F 40.7 °F 42.8 °F 93% 30.31 in 5.0 mi North 6.9 mph - N/A   Overcast
8:35 PM 44.6 °F 37.8 °F 41.0 °F 87% 30.33 in 7.0 mi North 15.0 mph 18.4 mph N/A   Overcast
8:55 PM 42.8 °F 36.6 °F 41.0 °F 93% 30.32 in 7.0 mi North 11.5 mph - N/A   Overcast
9:15 PM 42.8 °F 34.8 °F 41.0 °F 93% 30.35 in 7.0 mi North 17.3 mph 20.7 mph N/A   Overcast
9:35 PM 42.8 °F 37.5 °F 41.0 °F 93% 30.34 in 10.0 mi North 9.2 mph 18.4 mph N/A   Overcast
9:55 PM 42.8 °F 37.0 °F 39.2 °F 87% 30.35 in 10.0 mi North 10.4 mph - N/A   Overcast
10:15 PM 42.8 °F 36.2 °F 39.2 °F 87% 30.35 in 10.0 mi North 12.7 mph - N/A   Overcast
10:35 PM 41.0 °F 33.5 °F 37.4 °F 87% 30.36 in 10.0 mi North 13.8 mph 17.3 mph N/A   Overcast
10:55 PM 41.0 °F 33.5 °F 37.4 °F 87% 30.36 in 10.0 mi NNE 13.8 mph - N/A   Overcast
11:15 PM 41.0 °F 33.5 °F 33.8 °F 76% 30.36 in 10.0 mi North 13.8 mph 24.2 mph N/A   Overcast
11:35 PM 39.2 °F 32.5 °F 33.8 °F 81% 30.35 in 10.0 mi NNE 10.4 mph - N/A   Overcast
11:55 PM 37.4 °F 31.4 °F 33.8 °F 87% 30.36 in 10.0 mi NNE 8.1 mph - N/A   Scattered Clouds